Location: Edinburgh
(55.9500°N, 3.1600°W)
Time: 11:19:56
(UTC+00:00)

Vanguard 2 - All Passes

Search period start: 25 February 2018 00:00
Search period end: 07 March 2018 00:00
Orbit: 553 x 2939 km, 32.9° (Epoch: 24 February)

Date Brightness Start Highest point End Pass type
(mag) Time Alt. Az. Time Alt. Az. Time Alt. Az.
25 Feb - 16:07:46 10° SSW 16:14:57 16° S 16:20:43 10° SE daylight
25 Feb - 18:16:44 10° SW 18:22:48 16° S 18:27:34 10° SSE visible
26 Feb - 14:19:06 10° S 14:24:12 12° SSE 14:28:44 10° SE daylight
26 Feb - 16:24:16 10° SSW 16:32:31 19° S 16:38:56 10° SE daylight
26 Feb - 18:34:19 10° SW 18:40:15 16° SSW 18:44:58 10° SSE visible
27 Feb - 14:33:54 10° S 14:41:42 16° SSE 14:48:14 10° SE daylight
27 Feb - 16:41:10 10° SW 16:50:04 20° S 16:56:50 10° SE daylight
27 Feb - 18:52:10 10° SW 18:57:40 15° SSW 19:02:06 10° S visible
28 Feb - 14:49:46 10° SSW 14:59:13 19° SSE 15:06:51 10° SE daylight
28 Feb - 16:58:21 10° SW 17:07:36 21° S 17:14:32 10° SE daylight
28 Feb - 19:10:24 10° SW 19:14:59 13° SSW 19:18:50 10° S visible
01 Mar - 13:01:49 10° S 13:08:08 13° SSE 13:13:53 10° SE daylight
01 Mar - 15:06:11 10° SSW 15:16:44 22° S 15:25:03 10° SE daylight
01 Mar - 17:15:47 10° SW 17:25:04 21° SSW 17:32:04 10° SSE daylight
01 Mar - 19:29:20 10° SW 19:32:14 11° SW 19:34:49 10° SSW visible
02 Mar - 13:16:29 10° S 13:25:32 17° SSE 13:33:26 10° ESE daylight
02 Mar - 15:22:59 10° SW 15:34:16 24° S 15:43:00 10° SE daylight
02 Mar - 17:33:25 10° WSW 17:42:30 21° SSW 17:49:23 10° SSE daylight
03 Mar - 13:32:11 10° SSW 13:42:58 20° SSE 13:52:08 10° ESE daylight
03 Mar - 15:40:03 10° SW 15:51:46 25° S 16:00:46 10° SE daylight
03 Mar - 17:51:16 10° WSW 17:59:51 19° SSW 18:06:29 10° SSE daylight
04 Mar - 11:45:42 10° SSE 11:51:46 13° SE 11:57:34 10° ESE daylight
04 Mar - 13:48:28 10° SSW 14:00:24 23° SSE 14:10:24 10° ESE daylight
04 Mar - 15:57:22 10° SW 16:09:15 26° S 16:18:22 10° SE daylight
04 Mar - 18:09:24 10° WSW 18:17:08 17° SSW 18:23:17 10° S daylight
05 Mar - 11:59:54 10° S 12:09:02 17° SSE 12:17:32 10° ESE daylight
05 Mar - 14:05:09 10° SW 14:17:53 26° S 14:28:24 10° ESE daylight
05 Mar - 16:14:52 10° WSW 16:26:42 25° SSW 16:35:47 10° SE daylight
05 Mar - 18:27:55 10° WSW 18:34:20 15° SW 18:39:38 10° S visible
06 Mar - 12:15:22 10° SSW 12:26:20 20° SSE 12:36:26 10° ESE daylight
06 Mar - 14:22:08 10° SW 14:35:21 28° S 14:46:13 10° SE daylight
06 Mar - 16:32:34 10° WSW 16:44:05 24° SSW 16:53:01 10° SSE daylight
06 Mar - 18:47:15 10° WSW 18:51:25 12° SW 18:55:07 10° SSW visible
